Vertical_Velocity
-1 -1 -1 -1 -1 1 -1 -2 -1 -2 -2 -1 -0 -0 -2 -1 -1 -0 -4 1 -3 -3 -2 -1 0 2 5 -1 5 6 0 -0 -2 1 -6 -1 1 3 1 -2 1 1 -0 -2 1
0 -1 -2 -2 -2 -3 -3 -2 -2 -1 0 0 0 0 2 2 0 -1 6 1 4 -2 1 0 -4 2 -0 -2 1 -1 -1 -4 -3 -2 -2 -1 -0 1 1 1 -0 1 2 -0 4
-2 -2 -2 -1 -1 0 1 1 0 -2 -1 -0 -0 0 1 1 -1 -2 3 -0 3 0 2 0 0 4 3 6 -2 -0 -4 -2 -2 -0 -0 -1 -1 2 -1 0 -0 -4 -3 -1 -2
0 -0 -1 1 0 1 -1 -0 -1 -0 -0 1 1 2 2 -0 -2 2 -1 2 3 2 1 1 3 3 1 0 -3 1 -0 -2 -7 2 -0 -0 0 -1 0 -0 2 -0 5 1 0
-1 -1 0 -2 -1 -1 1 0 1 -0 0 0 1 1 1 0 -4 -1 -0 -0 1 -0 -1 -1 2 0 -1 -0 4 3 -2 3 0 -0 1 -1 0 0 -0 1 2 -1 1 0 -1
0 0 0 1 1 -1 -1 -0 1 0 0 0 0 0 1 1 -1 2 1 1 1 0 1 1 -2 4 -0 0 -1 1 0 -4 4 -1 -0 -1 -0 -0 5 5 1 1 1 0 1
-2 1 -1 -1 -0 -1 -0 0 1 0 0 0 -0 -1 1 -4 -2 -3 -1 -0 0 0 -1 2 6 2 3 -1 0 1 -2 -2 1 1 0 -2 -4 -1 2 4 -0 1 0 -0 -0
1 -0 0 -1 -1 -0 -1 -0 -0 -0 -0 -1 0 -1 -3 2 2 1 -0 -2 -0 1 2 1 3 0 -2 0 -1 -1 -4 -1 -3 0 1 -7 -4 -1 4 1 2 2 0 -0 -0
-2 -2 -3 -1 -0 -0 -1 -0 -1 -0 -0 -0 -0 0 -1 1 1 -1 -0 0 1 -1 0 1 -0 -2 5 -1 -4 -1 -2 1 -1 -1 -2 -4 -2 -1 1 3 3 2 1 0 1
-2 -1 -0 -1 -2 -1 -1 -1 -1 0 -0 0 -0 4 4 2 0 0 -1 1 0 2 0 2 1 -1 -1 -3 -6 -3 1 0 -2 1 -0 1 1 1 5 -2 5 8 6 0 -1
1 -2 1 -1 2 1 -2 -2 -1 -0 1 1 1 4 0 -0 1 -0 -0 0 2 5 0 -1 -5 -2 -4 -2 -2 -1 -1 -0 -0 -1 -4 -0 1 3 4 -6 -2 0 -0 3 17
-1 -0 -2 -1 -2 2 -2 -3 0 1 -3 -1 2 1 -1 0 2 -3 2 1 2 -1 1 -5 -2 -2 0 -0 -1 0 -0 1 -1 -0 -5 0 4 3 -0 3 3 3 1 1 3
1 2 -2 -2 -1 -4 -2 -0 1 0 -2 2 1 -3 -2 0 0 -1 -5 1 0 1 -0 -4 -2 0 -0 -0 0 0 -2 0 -4 -0 -1 -3 0 -1 1 -2 -0 -1 5 1 2
-3 0 -4 0 -1 -1 -2 -0 1 -0 -5 -1 1 1 -3 6 -0 1 1 2 -3 -0 -0 -2 -1 -0 0 -0 1 0 0 -1 -0 -2 -4 -6 -5 1 1 1 -2 -0 -3 -2 -2
-1 1 -2 -6 -0 -2 2 1 0 -1 -8 -6 0 9 13 -4 4 5 2 -3 1 0 -7 -4 -1 -1 -1 1 0 -1 -0 -1 -0 -1 -4 -1 -6 -3 0 -2 -1 -0 -0 -1 -2
-2 2 1 -1 -3 1 0 -0 -1 -10 -9 -6 2 -1 -6 -4 1 1 -5 -3 5 1 -2 1 1 -2 1 0 0 -0 -2 -2 -1 -2 -4 -4 -6 0 -1 -1 -1 -0 0 -0 -3
0 -1 -6 -2 -2 -1 -1 -1 -12 -9 -8 -3 -1 -1 0 -1 -1 -2 -3 -5 -3 -8 -1 0 0 -1 -1 -1 -1 -4 -3 -3 -3 -4 -8 -0 -3 -5 0 0 -0 1 0 1 -1
2 2 -1 -3 4 2 1 -10 -11 1 1 -1 1 -2 -1 -0 -2 -1 -1 -2 -4 -2 -0 2 -4 -2 -4 -1 -4 -0 -3 -3 -4 -3 -4 -2 -2 -0 0 3 2 -0 0 -0 -0
3 -0 2 2 -3 -1 -1 -8 -1 2 3 1 -8 -1 -0 -2 -0 -4 -0 0 1 -0 -7 -1 1 -0 1 0 -2 -8 -4 -5 -2 -0 -3 0 1 3 0 1 -2 0 -1 1 0
2 1 0 0 -0 -1 -13 -1 -1 0 1 -0 2 -3 0 -0 -4 -4 -2 -0 -1 1 -0 -5 -6 -1 1 -1 -3 -6 -4 -7 -3 -0 1 2 0 -1 -0 1 0 -2 1 1 1
2 0 -1 5 1 -14 -4 1 -0 3 0 -1 1 -1 1 1 1 1 -2 -4 -1 -3 2 -1 -9 -10 -4 -4 -2 -5 -1 -4 -4 -2 -4 -1 -5 -3 -0 1 1 0 2 4 0
-2 -6 -5 -0 -20 1 -1 0 0 0 -2 -0 -2 0 1 0 -0 -0 -1 -0 1 3 -0 -1 -4 -0 -3 -4 -2 -2 -2 -1 -4 -5 -0 -3 -5 -0 -0 -0 -0 1 1 2 0
-1 2 -5 -1 -5 -0 2 1 -1 -2 0 -1 -0 0 -0 1 -2 0 0 3 -2 -0 -1 -2 -2 -3 -10 -12 -5 -2 -1 -1 -1 -2 -1 -4 -6 -0 1 0 1 -0 1 2 -0
-3 -7 -5 -8 2 -3 -0 0 1 1 0 -1 1 -3 -2 -2 -1 -1 -0 -0 -1 1 2 -2 -1 -6 -7 -10 -1 -3 -1 -0 -4 -3 -3 -2 -1 1 0 -0 -1 1 -0 -0 3
-8 2 5 -4 -5 -0 -2 -0 -0 -0 -0 -1 2 -1 -1 -2 -1 0 -1 -3 0 1 -0 -5 -2 -1 -1 -0 -0 -1 -1 -0 -2 -3 -7 -5 -2 -3 -2 -2 -1 1 -0 -1 0
-5 -5 -4 -2 1 -1 -1 1 -0 1 -2 -1 -2 -0 1 -2 -7 -3 -1 -1 2 -5 -1 -2 -3 -0 -1 -0 -0 -0 0 -0 -0 0 -1 -0 -2 -3 -0 2 -0 0 0 0 -2
-1 -1 0 -3 -2 -2 -2 0 1 -1 -0 -1 -1 -0 -1 -1 -0 -2 0 1 -2 -3 -0 -2 -1 -2 -1 0 -1 -5 -3 -0 -1 -0 -6 -3 -9 -0 -0 0 -0 -1 0 2 3
Height
1489 1486 1484 1481 1477 1474 1472 1470 1468 1467 1465 1464 1463 1462 1461 1460 1459 1459 1458 1460 1460 1461 1464 1466 1468 1470 1472 1472 1473 1474 1479 1479 1473 1472 1469 1462 1464 1462 1463 1461 1466 1470 1473 1477 1482
1487 1484 1482 1478 1475 1472 1469 1467 1465 1463 1462 1461 1460 1459 1459 1457 1456 1455 1456 1456 1457 1459 1462 1464 1466 1468 1471 1470 1470 1470 1476 1471 1464 1464 1464 1463 1461 1461 1465 1463 1468 1470 1473 1476 1480
1486 1482 1480 1477 1474 1471 1467 1465 1462 1460 1459 1459 1457 1457 1456 1455 1455 1452 1452 1454 1456 1457 1459 1460 1463 1466 1468 1467 1466 1464 1468 1464 1462 1461 1462 1460 1459 1459 1461 1463 1465 1466 1469 1476 1480
1485 1482 1479 1476 1472 1469 1466 1463 1461 1458 1456 1456 1455 1455 1454 1455 1457 1452 1453 1454 1454 1455 1456 1458 1460 1463 1464 1465 1461 1463 1459 1462 1461 1460 1461 1460 1459 1461 1460 1464 1464 1466 1469 1473 1477
1484 1481 1478 1475 1471 1468 1465 1462 1459 1457 1455 1453 1453 1453 1454 1454 1453 1452 1453 1453 1453 1453 1454 1456 1457 1459 1459 1458 1459 1459 1457 1456 1457 1457 1458 1460 1460 1461 1465 1465 1466 1467 1470 1473 1477
1483 1480 1477 1473 1470 1466 1464 1460 1457 1454 1453 1452 1451 1452 1453 1455 1452 1452 1452 1451 1451 1452 1452 1454 1455 1457 1457 1455 1457 1452 1452 1454 1456 1456 1457 1458 1462 1461 1465 1464 1464 1467 1470 1475 1477
1483 1479 1476 1472 1468 1465 1462 1458 1455 1452 1451 1450 1450 1451 1453 1453 1451 1451 1451 1451 1451 1451 1451 1453 1454 1455 1454 1453 1451 1450 1452 1451 1452 1452 1455 1457 1461 1462 1462 1463 1465 1467 1471 1475 1479
1481 1478 1474 1471 1467 1464 1460 1457 1454 1451 1450 1449 1450 1451 1451 1451 1451 1451 1450 1450 1450 1450 1450 1451 1451 1452 1453 1452 1449 1449 1452 1459 1450 1451 1456 1458 1467 1464 1463 1462 1466 1469 1473 1476 1480
1480 1476 1473 1469 1466 1462 1459 1455 1453 1451 1451 1451 1452 1452 1451 1452 1451 1451 1450 1449 1450 1449 1449 1450 1450 1451 1452 1455 1462 1454 1463 1458 1451 1448 1453 1458 1464 1465 1464 1465 1468 1471 1475 1478 1481
1479 1474 1471 1468 1464 1461 1457 1454 1452 1452 1452 1452 1453 1456 1453 1453 1451 1451 1450 1449 1449 1449 1449 1450 1450 1452 1453 1462 1474 1457 1456 1451 1452 1452 1452 1460 1466 1468 1469 1469 1473 1475 1478 1479 1482
1476 1472 1468 1466 1462 1459 1456 1453 1455 1454 1453 1453 1454 1453 1452 1452 1451 1451 1450 1449 1448 1449 1450 1448 1453 1455 1453 1452 1454 1454 1452 1451 1452 1451 1452 1462 1469 1478 1477 1475 1477 1479 1480 1481 1484
1474 1470 1467 1464 1461 1459 1456 1455 1454 1456 1454 1453 1453 1453 1452 1451 1451 1450 1450 1449 1447 1449 1447 1451 1455 1448 1446 1446 1447 1448 1449 1451 1456 1452 1454 1468 1484 1485 1483 1486 1486 1484 1483 1484 1485
1471 1467 1465 1462 1459 1458 1456 1456 1454 1454 1455 1454 1454 1453 1453 1452 1451 1450 1449 1447 1445 1445 1445 1452 1448 1446 1445 1449 1448 1448 1456 1452 1453 1455 1457 1467 1489 1487 1491 1489 1487 1487 1487 1486 1487
1470 1467 1464 1461 1459 1457 1456 1455 1454 1454 1459 1457 1455 1455 1453 1451 1452 1451 1449 1450 1445 1445 1445 1449 1448 1447 1446 1453 1454 1448 1454 1453 1453 1463 1470 1464 1492 1491 1494 1493 1492 1491 1490 1488 1487
1471 1469 1463 1458 1458 1457 1456 1453 1453 1455 1485 1457 1457 1457 1454 1453 1454 1454 1451 1448 1449 1448 1448 1452 1453 1454 1453 1456 1455 1455 1453 1454 1459 1470 1470 1463 1475 1490 1489 1497 1498 1494 1492 1490 1488
1470 1468 1464 1460 1458 1456 1453 1453 1455 1460 1483 1462 1459 1459 1458 1455 1454 1454 1453 1451 1451 1449 1451 1455 1455 1458 1459 1457 1456 1456 1456 1458 1462 1471 1496 1465 1466 1487 1497 1498 1499 1495 1494 1492 1488
1469 1467 1463 1460 1458 1455 1453 1454 1464 1481 1467 1471 1468 1464 1463 1459 1456 1458 1463 1467 1472 1472 1455 1457 1461 1462 1461 1459 1458 1461 1466 1488 1481 1495 1487 1473 1469 1506 1498 1499 1498 1498 1495 1493 1490
1468 1466 1464 1460 1458 1455 1453 1456 1482 1474 1479 1474 1470 1465 1462 1464 1461 1465 1466 1478 1472 1471 1471 1458 1469 1472 1466 1466 1464 1464 1465 1456 1459 1497 1480 1472 1501 1496 1498 1498 1498 1498 1497 1494 1490
1468 1465 1465 1461 1458 1455 1454 1478 1487 1485 1483 1481 1472 1465 1466 1466 1466 1469 1476 1484 1477 1475 1490 1477 1466 1468 1467 1467 1467 1469 1476 1474 1473 1466 1474 1488 1495 1497 1499 1499 1499 1499 1497 1494 1491
1467 1465 1464 1462 1458 1456 1460 1477 1484 1484 1482 1480 1479 1475 1477 1475 1473 1472 1482 1482 1479 1476 1475 1479 1488 1469 1468 1468 1469 1471 1473 1473 1476 1470 1450 1482 1492 1498 1506 1501 1501 1499 1497 1496 1493
1465 1464 1465 1461 1459 1458 1478 1483 1483 1483 1482 1482 1482 1481 1482 1482 1479 1476 1489 1484 1479 1476 1473 1473 1489 1479 1468 1487 1485 1474 1469 1479 1476 1478 1480 1485 1510 1504 1504 1503 1503 1501 1499 1498 1495
1466 1468 1466 1462 1463 1473 1484 1483 1484 1484 1483 1482 1481 1483 1482 1482 1481 1477 1481 1480 1480 1478 1478 1476 1487 1483 1486 1486 1484 1487 1485 1485 1477 1481 1481 1479 1514 1503 1503 1503 1503 1502 1501 1499 1498
1471 1471 1470 1465 1478 1482 1482 1483 1485 1485 1486 1484 1484 1483 1482 1482 1484 1480 1479 1480 1479 1479 1480 1477 1484 1498 1493 1490 1483 1492 1494 1499 1499 1495 1497 1496 1515 1502 1503 1504 1504 1503 1501 1500 1498
1476 1477 1474 1474 1479 1481 1483 1483 1485 1485 1486 1485 1485 1484 1484 1484 1481 1483 1481 1480 1479 1478 1476 1477 1486 1490 1503 1497 1484 1493 1490 1501 1503 1509 1517 1507 1507 1504 1505 1504 1503 1502 1501 1500 1499
1487 1490 1490 1487 1482 1484 1483 1483 1484 1486 1486 1485 1485 1486 1489 1497 1488 1485 1484 1482 1481 1480 1478 1480 1495 1485 1488 1480 1480 1484 1485 1496 1504 1509 1501 1509 1509 1505 1504 1502 1500 1500 1500 1499 1498
1496 1496 1490 1488 1483 1482 1483 1484 1485 1486 1487 1488 1488 1487 1486 1494 1495 1501 1491 1487 1487 1483 1482 1482 1490 1482 1485 1477 1476 1480 1479 1485 1491 1506 1510 1509 1507 1499 1497 1498 1499 1497 1497 1497 1497
1496 1495 1493 1487 1484 1485 1488 1485 1485 1485 1487 1487 1487 1488 1486 1488 1488 1486 1486 1486 1486 1488 1489 1490 1492 1490 1485 1477 1479 1490 1487 1486 1494 1498 1498 1501 1499 1495 1497 1497 1496 1494 1493 1494 1495